Regional Weather Roundup
Issued by NWS

Home | Current Version | Previous Version | Text Only | Print | Product List | Glossary On
Versions: 1 2 3 4 5 6 7 8 9 10 11 12 13 14 15 16 17 18 19 20 21 22 23 24 25 26 27 28 29 30 31 32 33 34 35 36 37 38 39 40 41 42 43 44 45 46 47 48 49 50
000
ASUS43 KDTX 211310
RWRMI
MICHIGAN HOURLY REGIONAL WEATHER ROUNDUP
NATIONAL WEATHER SERVICE DETROIT/PONTIAC MI
900 AM EDT MON APR 21 2014

NOTE: "FAIR" INDICATES FEW OR NO CLOUDS BELOW 12,000 FEET WITH NO
SIGNIFICANT WEATHER AND/OR OBSTRUCTION TO VISIBILITY.

MIZ047>049-052>055-059>063-066>070-074>076-081>083-211400-
SOUTHEAST LOWER MICHIGAN

CITY           SKY/WX    TMP DP  RH WIND       PRES   REMARKS
ADRIAN         PTSUNNY   50  43  77 CALM      30.03S
ALMA           PTSUNNY   58  35  42 SW9       29.96S
ANN ARBOR      PTSUNNY   52  41  66 CALM      30.02F
BAD AXE        CLOUDY    58  37  46 S9        29.97F
CARO           CLOUDY    64  35  33 SW9       29.97S
DETROIT CITY   MOSUNNY   59  38  45 CALM      30.02F
DETROIT        CLOUDY    53  42  66 CALM      30.02F
FLINT          CLOUDY    62  36  37 SW8       29.98F
GROSSE ILE     MOSUNNY   52  46  82 CALM      30.01F
HILLSDALE      CLOUDY    60  39  45 S3        30.02S
HOWELL         CLOUDY    58  35  42 SW7       30.00F

CITY           SKY/WX    TMP DP  RH WIND       PRES   REMARKS
JACKSON        CLOUDY    62  38  40 SW6       30.00F
LAMBERTVILLE   PTSUNNY   59  37  44 CALM      30.02F
LANSING        CLOUDY    60  36  40 S7        29.99F
LAPEER         FAIR      57  40  53 CALM      29.99F
MASON          CLOUDY    56  40  53 CALM      29.99F
MONROE         MOSUNNY   54  45  71 CALM      30.01F
MT. CLEMENS    PTSUNNY   54  40  60 CALM      30.01F
PONTIAC        PTSUNNY   57  37  47 CALM      30.00F
PORT HOPE        N/A     59  38  45 SW7       29.94F
PORT HURON     PTSUNNY   52  39  62 S5        30.02S
TRI CITIES     MOSUNNY   60  38  43 S8        29.96F
TROY           PTSUNNY   54  37  52 CALM      30.02F
SAGINAW HB     CLOUDY    61  34  36 SW10      29.96F
YPSILANTI      PTSUNNY   56  41  57 CALM      30.02F
$$
MIZ043>046-050>051-056>058-064>065-071>073-077>080-211400-
SOUTHWEST LOWER MICHIGAN

CITY           SKY/WX    TMP DP  RH WIND       PRES   REMARKS
BATTLE CREEK   CLOUDY    59  38  45 S9        30.00F
BENTON HARBOR  CLOUDY    59  40  49 S3        29.97F
BIG RAPIDS     CLOUDY    61  42  49 W6        29.94S
COLDWATER      PTSUNNY   59  40  49 SW6       30.01F
FREMONT        FAIR      58  42  55 SW7       29.95S
HOLLAND        PTSUNNY   66  42  41 SW8       29.97F
GRAND RAPIDS   PTSUNNY   64  38  38 SW8       29.97F
IONIA          FAIR      60  37  42 SW6       29.97S
KALAMAZOO      CLOUDY    57  37  47 S6        30.00F
LUDINGTON      CLOUDY    47  43  84 S3        29.93F
MARSHALL       CLOUDY    58  38  46 SW5       30.00S
MOUNT PLEASANT CLOUDY    63  39  41 SW7       29.93F
MUSKEGON       CLOUDY    60  39  45 SW10      29.95F
SOUTH HAVEN    CLOUDY    62  38  40 S5        29.97F
$$
MIZ016>042-211400-
NORTHERN LOWER MICHIGAN

CITY           SKY/WX    TMP DP  RH WIND       PRES   REMARKS
ALPENA         CLOUDY    45  38  76 CALM      29.93F
BEAVER ISLAND  CLOUDY    42  41  97 CALM      29.92F FOG
BELLAIRE       CLOUDY    47  45  93 CALM      29.92R FOG
CADILLAC       CLOUDY    57  43  59 SW9       29.93R
CHARLEVOIX     CLOUDY    49  47  93 CALM      29.93F
FRANKFORT      CLOUDY    46  36  68 SW5       29.93S
GAYLORD        CLOUDY    50  44  80 CALM      29.92F
GRAYLING       CLOUDY    55  43  65 CALM      29.92F
HARBOR SPRINGS CLOUDY    47  46  93 CALM      29.90F
HOUGHTON LAKE  CLOUDY    59  37  44 SW6       29.92F
MANISTEE       CLOUDY    52  39  62 CALM      29.93F
OSCODA         MOSUNNY   55  43  62 SW5       29.93F
PELLSTON       CLOUDY    45  42  89 CALM      29.92F
ROGERS CITY    CLOUDY    48  43  82 S5        29.95S
TRAVERSE CITY  CLOUDY    45  38  76 CALM      29.91S
$$
MIZ007>008-015-211400-
EASTERN UPPER MICHIGAN

CITY           SKY/WX    TMP DP  RH WIND       PRES   REMARKS
KINROSS        CLOUDY    37  37 100 E3        29.94S
MACKINAC ISLAN CLOUDY    37  37 100 E6        29.93F FOG     WCI  33
NEWBERRY       FOG       34  34 100 E5        29.93S VSB<1/4 WCI  30
S. S. MARIE    FOG       39  38  96 SE5       29.94F VSB<1/4
MUNISING         N/A     40  36  86 S5        29.91F
$$
MIZ004>006-011>014-085-211400-
CENTRAL UPPER MICHIGAN

CITY           SKY/WX    TMP DP  RH WIND       PRES   REMARKS
MANISTIQUE     FOG       38  38  99 N7        29.92S VSB<1/4 WCI  33
ESCANABA       CLOUDY    39  37  93 N3        29.91F VSB<1/4
MENOMINEE      CLOUDY    43  43 100 CALM      29.90F VSB 1
SAWYER-GWINN   SUNNY     37  37 100 CALM      29.89F
$$
MIZ001>003-009>011-084-211400-
WESTERN UPPER MICHIGAN

CITY           SKY/WX    TMP DP  RH WIND       PRES   REMARKS
IRON MOUNTAIN  CLOUDY    41  39  93 NW3       29.89F
HOUGHTON       MOSUNNY   42  29  59 SE3       29.87F
COPPER HARBOR    N/A     43  33  68 SW16G22   29.86F
IRONWOOD       PTSUNNY   46  43  87 CALM      29.84S
$$

ABBREVIATIONS USED IN REMARKS
   TC - TEMPERATURE IN CELSIUS
  WCI - WIND CHILL INDEX
   HX - HEAT INDEX
  VSB - VISIBILITY




USA.gov is the U.S. government's official web portal to all federal, state and local government web resources and services.